Location: ???????
(54.6339°N, 39.4245°E)
Time: 10:31:18
(UTC+00:00)

Cosmos 1980 - Pass Details

Date: 19 May 2025
Orbit: 837 x 846 km, 71.0° (Epoch: 13 June)

Event Time Altitude Azimuth Distance (km) Brightness Sun altitude
Rises 23:04:54 0° 326° (NW) 3,421 7.3 -12.0°
Reaches altitude 10° 23:07:22 10° 325° (NW) 2,481 6.5 -11.9°
Maximum altitude 23:13:03 76° 241° (WSW) 875 3.7 -11.5°
Drops below altitude 10° 23:18:42 10° 156° (SSE) 2,460 5.8 -11.1°
Sets 23:21:08 0° 155° (SSE) 3,390 6.5 -10.9°
